Weather History for KIRK - July, 2013

Change the Weather History Date:

Sunday, July 21, 2013

  Actual Average Record
Temperature  
Mean Temperature 71 °F 76 °F  
Max Temperature 80 °F 86 °F - ()
Min Temperature 61 °F 65 °F - ()
Degree Days  
Heating Degree Days 0 0  
Month to date heating degree days 0 0  
Since 1 June heating degree days 36 16  
Since 1 July heating degree days 0 0  
Cooling Degree Days 6 11  
Month to date cooling degree days 211 206  
Year to date cooling degree days 486 460  
Since 1 June cooling degree days 418 398  
Growing Degree Days 20 (Base 50)    
Moisture  
Dew Point 67 °F    
Average Humidity 90    
Maximum Humidity 100    
Minimum Humidity 79    
Precipitation  
Precipitation 0.16 in 0.17 in - ()
Month to date precipitation 0.16 3.04  
Year to date precipitation 28.07 21.97  
Sea Level Pressure  
Sea Level Pressure 29.90 in    
Wind  
Wind Speed 4 mph (SSE)    
Max Wind Speed 13 mph    
Max Gust Speed 18 mph    
Visibility 8 miles    
Events Rain , Thunderstorm    
T = Trace of Precipitation, MM = Missing Value Source: NWS Daily Summary

Daily Weather History Graph

Daily Weather History Graph

Search for Another Location

Airport or City:

Trip Planner

Search our weather history database for the weather conditions in past years. The results will help you decide how hot, cold, wet, or windy it might be!

Date:

Astronomy

Jul. 21, 2013 Rise Set
Actual Time 5:58 AM CDT 8:33 PM CDT
Civil Twilight 5:27 AM CDT 9:05 PM CDT
Nautical Twilight 4:48 AM CDT 9:44 PM CDT
Astronomical Twilight 4:04 AM CDT 10:27 PM CDT
Moon 7:32 PM CDT (7/21) 4:45 AM CDT (7/21)
Length of Visible Light 15h 37m
Length of Day
14h 35m
Waxing Gibbous, 98% of the Moon is Illuminated
Jul 21
Waxing Gibbous
Jul 22
Full
Jul 29
Last Quarter
Aug 6
New
Aug 14
First Quarter

Hourly Weather History & Observations

Time (CDT) Temp. Dew Point Humidity Pressure Visibility Wind Dir Wind Speed Gust Speed Precip Events Conditions
12:55 AM 63.0 °F 61.0 °F 93% 29.93 in 10.0 mi Calm Calm - N/A   Clear
1:55 AM 63.0 °F 61.0 °F 93% 29.92 in 10.0 mi Calm Calm - N/A   Clear
2:55 AM 62.1 °F 60.1 °F 93% 29.92 in 8.0 mi Calm Calm - N/A   Clear
3:55 AM 64.9 °F 63.0 °F 93% 29.90 in 10.0 mi Calm Calm - N/A   Partly Cloudy
4:55 AM 66.0 °F 64.0 °F 93% 29.89 in 10.0 mi South 5.8 mph - N/A   Partly Cloudy
5:55 AM 68.0 °F 64.0 °F 87% 29.89 in 10.0 mi ENE 3.5 mph - N/A   Clear
6:55 AM 69.1 °F 64.9 °F 87% 29.90 in 10.0 mi ENE 4.6 mph - N/A   Clear
7:55 AM 71.1 °F 66.0 °F 84% 29.91 in 10.0 mi Calm Calm - N/A   Mostly Cloudy
8:55 AM 73.0 °F 68.0 °F 84% 29.92 in 10.0 mi South 5.8 mph - N/A   Mostly Cloudy
9:55 AM 72.0 °F 70.0 °F 93% 29.91 in 10.0 mi South 5.8 mph - 0.00 in Rain Light Rain
10:55 AM 77.0 °F 71.1 °F 82% 29.93 in 10.0 mi SW 5.8 mph - 0.00 in   Scattered Clouds
11:55 AM 78.1 °F 71.1 °F 79% 29.92 in 10.0 mi WSW 4.6 mph - 0.00 in   Mostly Cloudy
12:55 PM 77.0 °F 73.0 °F 88% 29.90 in 10.0 mi South 10.4 mph - 0.00 in Rain Light Rain
1:55 PM 75.0 °F 72.0 °F 90% 29.90 in 10.0 mi SSW 6.9 mph - 0.00 in Rain Light Rain
2:55 PM 77.0 °F 72.0 °F 84% 29.90 in 10.0 mi South 3.5 mph - 0.00 in   Mostly Cloudy
3:46 PM 78.8 °F 71.6 °F 78% 29.90 in 10.0 mi Calm Calm - 0.00 in   Overcast
3:55 PM 79.0 °F 72.0 °F 79% 29.90 in 10.0 mi Calm Calm - 0.00 in   Overcast
4:26 PM 71.6 °F 64.4 °F 78% 29.93 in 10.0 mi NNW 8.1 mph - N/A Thunderstorm Thunderstorm
4:48 PM 68.0 °F 66.2 °F 94% 29.92 in 1.8 mi NNE 8.1 mph - 0.07 in Rain , Thunderstorm Thunderstorms and Rain
4:55 PM 66.9 °F 66.0 °F 97% 29.91 in 1.8 mi NE 10.4 mph - 0.12 in Rain Rain
5:01 PM 66.2 °F 66.2 °F 100% 29.91 in 3.0 mi NE 9.2 mph - 0.01 in Rain Light Rain
5:55 PM 66.9 °F 66.0 °F 97% 29.89 in 10.0 mi ESE 5.8 mph - 0.04 in Rain Light Rain
6:55 PM 70.0 °F 66.9 °F 90% 29.87 in 10.0 mi SSE 6.9 mph - 0.00 in   Clear
7:55 PM 69.1 °F 66.0 °F 90% 29.86 in 10.0 mi South 3.5 mph - N/A   Clear
8:55 PM 64.9 °F 64.0 °F 97% 29.87 in 10.0 mi South 3.5 mph - N/A   Clear
9:55 PM 64.9 °F 64.0 °F 97% 29.89 in 4.0 mi South 3.5 mph - N/A   Clear
10:55 PM 64.9 °F 64.0 °F 97% 29.88 in 4.0 mi SW 3.5 mph - N/A   Partly Cloudy
11:55 PM 64.9 °F 64.0 °F 97% 29.87 in 5.0 mi SSW 3.5 mph - N/A   Clear